DW2149 Weather Reports


Display with metric or nautical units.
time (UTC)temp
F
wind
direction
speed
MPH
gust
MPH
rain 1hr
in
rain 24hr
in
rain mn
in
humidity
%
barometer
mb
20260507174930 68 282 0.0 7.0 0.00 0.00 0.00 63 1017.3
20260507174717 68 277 0.0 7.0 0.00 0.00 0.00 63 1017.3
20260507174506 67 255 0.0 5.0 0.00 0.00 0.00 63 1017.3
20260507174254 67 258 0.0 5.0 0.00 0.00 0.00 65 1017.4
20260507174053 67 270 1.0 5.0 0.00 0.00 0.00 65 1017.3
20260507173842 67 270 1.0 5.0 0.00 0.00 0.00 65 1017.3
20260507173452 67 182 1.0 3.0 0.00 0.00 0.00 66 1017.3
20260507173247 66 281 1.0 7.0 0.00 0.00 0.00 67 1017.3
20260507173037 66 281 1.0 7.0 0.00 0.00 0.00 68 1017.4
20260507172825 66 281 1.0 7.0 0.00 0.00 0.00 68 1017.4
20260507172613 66 225 1.0 6.0 0.00 0.00 0.00 69 1017.4
20260507172402 66 306 0.0 6.0 0.00 0.00 0.00 69 1017.4
20260507172009 65 287 0.0 4.0 0.00 0.00 0.00 71 1017.3
20260507171758 65 294 0.0 4.0 0.00 0.00 0.00 71 1017.3
20260507171548 65 306 1.0 3.0 0.00 0.00 0.00 72 1017.3
20260507171344 64 273 0.0 3.0 0.00 0.00 0.00 72 1017.4
20260507171138 64 273 0.0 3.0 0.00 0.00 0.00 74 1017.4
20260507170749 63 273 0.0 3.0 0.00 0.00 0.00 77 1017.4
20260507170538 63 265 0.0 3.0 0.00 0.00 0.00 79 1017.4
20260507170332 62 264 0.0 5.0 0.00 0.00 0.00 81 1017.4
20260507170124 62 264 0.0 5.0 0.00 0.00 0.00 85 1017.4
20260507165922 61 264 1.0 5.0 0.00 0.00 0.00 87 1017.4
20260507165710 61 273 1.0 5.0 0.00 0.00 0.00 88 1017.4
20260507165506 60 273 1.0 5.0 0.00 0.00 0.00 89 1017.4
20260507165254 60 271 1.0 5.0 0.00 0.00 0.00 91 1017.4
20260507165048 59 267 1.0 4.0 0.00 0.00 0.00 91 1017.4
20260507164843 59 267 1.0 7.0 0.00 0.00 0.00 92 1017.5
20260507164632 58 289 1.0 7.0 0.00 0.00 0.00 92 1017.5
20260507164422 58 290 1.0 7.0 0.00 0.00 0.00 92 1017.5
20260507164212 58 290 1.0 7.0 0.00 0.00 0.00 92 1017.5
20260507164003 58 289 1.0 7.0 0.00 0.00 0.00 92 1017.5
20260507163751 57 288 1.0 7.0 0.00 0.00 0.00 93 1017.5
20260507163547 57 288 1.0 7.0 0.00 0.00 0.00 92 1017.5
20260507163340 57 287 1.0 7.0 0.00 0.00 0.00 92 1017.5
20260507163136 56 286 0.0 7.0 0.00 0.00 0.00 92 1017.5
20260507162925 56 279 0.0 4.0 0.00 0.00 0.00 92 1017.5
20260507162724 56 279 0.0 4.0 0.00 0.00 0.00 92 1017.5
20260507162517 55 278 0.0 3.0 0.00 0.00 0.00 92 1017.5
20260507162314 55 278 0.0 3.0 0.00 0.00 0.00 92 1017.5
20260507162109 55 279 0.0 3.0 0.00 0.00 0.00 92 1017.5
20260507161712 54 286 0.0 1.0 0.00 0.00 0.00 92 1017.5
20260507161502 54 286 0.0 2.0 0.00 0.00 0.00 92 1017.5
20260507161250 54 286 0.0 4.0 0.00 0.00 0.00 92 1017.6
20260507160858 53 250 0.0 0.0 0.00 0.00 0.00 92 1017.6
20260507160655 53 238 0.0 0.0 0.00 0.00 0.00 92 1017.6
20260507160444 53 238 0.0 0.0 0.00 0.00 0.00 92 1017.6
20260507160050 53 238 0.0 0.0 0.00 0.00 0.00 91 1017.6
20260507155655 52 238 0.0 0.0 0.00 0.00 0.00 91 1017.7
20260507155446 52 238 0.0 0.0 0.00 0.00 0.00 91 1017.7
20260507155240 52 238 0.0 0.0 0.00 0.00 0.00 91 1017.7
20260507155027 52 238 0.0 0.0 0.00 0.00 0.00 91 1017.7
20260507154825 51 238 0.0 0.0 0.00 0.00 0.00 91 1017.8
20260507154620 51 238 0.0 0.0 0.00 0.00 0.00 91 1017.8
20260507154418 51 238 0.0 0.0 0.00 0.00 0.00 91 1017.8
20260507154206 51 238 0.0 0.0 0.00 0.00 0.00 91 1017.8
20260507153954 51 238 0.0 0.0 0.00 0.00 0.00 91 1017.8
20260507153608 50 238 0.0 0.0 0.00 0.00 0.00 91 1017.9
20260507153213 50 238 0.0 0.0 0.00 0.00 0.00 91 1017.8
20260507153002 50 238 0.0 0.0 0.00 0.00 0.00 91 1017.8
20260507152757 49 238 0.0 0.0 0.00 0.00 0.00 91 1017.8
20260507152549 49 238 0.0 0.0 0.00 0.00 0.00 91 1017.8
20260507152154 49 238 0.0 0.0 0.00 0.00 0.00 91 1017.7
20260507151800 48 238 0.0 0.0 0.00 0.00 0.00 90 1017.9
20260507151548 48 238 0.0 0.0 0.00 0.00 0.00 90 1017.9
20260507151338 48 238 0.0 0.0 0.00 0.00 0.00 90 1017.9
20260507151125 48 238 0.0 0.0 0.00 0.00 0.00 90 1017.9
20260507150729 48 238 0.0 0.0 0.00 0.00 0.00 90 1018.0
20260507150525 48 238 0.0 0.0 0.00 0.00 0.00 90 1017.9
20260507150316 48 238 0.0 0.0 0.00 0.00 0.00 90 1017.9
20260507150113 48 238 0.0 0.0 0.00 0.00 0.00 90 1018.0
20260507145901 47 238 0.0 0.0 0.00 0.00 0.00 90 1018.0
20260507145648 47 238 0.0 0.0 0.00 0.00 0.00 90 1018.0
20260507145250 47 238 0.0 0.0 0.00 0.00 0.00 90 1018.1
20260507145042 47 238 0.0 0.0 0.00 0.00 0.00 90 1018.1
20260507144841 47 238 0.0 0.0 0.00 0.00 0.00 90 1018.1
20260507144638 47 238 0.0 0.0 0.00 0.00 0.00 90 1018.0
20260507144431 47 238 0.0 0.0 0.00 0.00 0.00 90 1018.1
20260507144218 47 238 0.0 0.0 0.00 0.00 0.00 90 1018.1
20260507143824 47 238 0.0 0.0 0.00 0.00 0.00 90 1018.0
20260507143429 47 238 0.0 0.0 0.00 0.00 0.00 90 1018.0
20260507143219 47 238 0.0 0.0 0.00 0.00 0.00 90 1018.0
20260507143016 47 238 0.0 0.0 0.00 0.00 0.00 89 1018.0
20260507142815 47 238 0.0 0.0 0.00 0.00 0.00 89 1018.0
20260507142613 47 238 0.0 0.0 0.00 0.00 0.00 89 1018.0
20260507142402 47 238 0.0 0.0 0.00 0.00 0.00 89 1018.0
20260507142155 47 238 0.0 0.0 0.00 0.00 0.00 89 1018.0
20260507141944 47 238 0.0 0.0 0.00 0.00 0.00 89 1018.0
20260507141738 47 238 0.0 0.0 0.00 0.00 0.00 89 1018.0
20260507141529 46 238 0.0 0.0 0.00 0.00 0.00 89 1018.0
20260507141325 46 238 0.0 0.0 0.00 0.00 0.00 89 1017.9
20260507141121 47 238 0.0 0.0 0.00 0.00 0.00 89 1017.9
20260507140910 46 238 0.0 0.0 0.00 0.00 0.00 89 1018.0
20260507140658 46 238 0.0 0.0 0.00 0.00 0.00 89 1017.9
20260507140446 46 238 0.0 0.0 0.00 0.00 0.00 89 1018.0
20260507140243 46 238 0.0 0.0 0.00 0.00 0.00 89 1018.0
20260507135854 46 238 0.0 0.0 0.00 0.00 0.00 89 1017.9
20260507135645 46 238 0.0 0.0 0.00 0.00 0.00 89 1017.9
20260507135433 46 238 0.0 0.0 0.00 0.00 0.00 89 1018.0
20260507135226 46 238 0.0 0.0 0.00 0.00 0.00 89 1017.9
20260507135015 47 238 0.0 0.0 0.00 0.00 0.00 89 1018.0
20260507134805 47 238 0.0 0.0 0.00 0.00 0.00 89 1018.0
20260507134412 47 238 0.0 0.0 0.00 0.00 0.00 89 1017.9
20260507134208 47 238 0.0 0.0 0.00 0.00 0.00 89 1017.9
20260507134002 47 238 0.0 0.0 0.00 0.00 0.00 89 1017.8
20260507133753 47 238 0.0 0.0 0.00 0.00 0.00 89 1017.8
20260507133545 47 238 0.0 0.0 0.00 0.00 0.00 89 1017.9
20260507133339 47 238 0.0 0.0 0.00 0.00 0.00 89 1017.8
20260507133131 47 238 0.0 0.0 0.00 0.00 0.00 89 1017.8
20260507132921 47 238 0.0 0.0 0.00 0.00 0.00 89 1017.8
20260507132714 47 238 0.0 0.0 0.00 0.00 0.00 89 1017.7
20260507132501 47 238 0.0 0.0 0.00 0.00 0.00 89 1017.7
20260507132257 47 238 0.0 0.0 0.00 0.00 0.00 89 1017.7
20260507131726 47 238 0.0 0.0 0.00 0.00 0.00 89 1017.7
20260507131513 47 238 0.0 0.0 0.00 0.00 0.00 89 1017.7
20260507131309 47 238 0.0 0.0 0.00 0.00 0.00 89 1017.6
20260507131101 47 238 0.0 0.0 0.00 0.00 0.00 89 1017.7
20260507130858 47 238 0.0 0.0 0.00 0.00 0.00 89 1017.6
20260507130652 47 238 0.0 0.0 0.00 0.00 0.00 89 1017.6
20260507130441 47 238 0.0 0.0 0.00 0.00 0.00 89 1017.6
20260507130234 47 238 0.0 0.0 0.00 0.00 0.00 89 1017.7
20260507130021 47 238 0.0 0.0 0.00 0.00 0.00 89 1017.6
20260507125820 47 238 0.0 0.0 0.00 0.00 0.00 89 1017.6
20260507125428 47 238 0.0 0.0 0.00 0.00 0.00 89 1017.6
20260507125221 47 238 0.0 0.0 0.00 0.00 0.00 89 1017.6
20260507125017 47 238 0.0 0.0 0.00 0.00 0.00 88 1017.6
20260507124812 47 238 0.0 0.0 0.00 0.00 0.00 88 1017.6
20260507124608 47 238 0.0 0.0 0.00 0.00 0.00 88 1017.6
20260507124356 47 238 0.0 0.0 0.00 0.00 0.00 89 1017.6
20260507124152 47 238 0.0 0.0 0.00 0.00 0.00 89 1017.6
20260507123950 47 238 0.0 0.0 0.00 0.00 0.00 89 1017.6
20260507123745 47 238 0.0 0.0 0.00 0.00 0.00 89 1017.6
20260507123533 47 238 0.0 0.0 0.00 0.00 0.00 89 1017.6
20260507123331 47 238 0.0 0.0 0.00 0.00 0.00 89 1017.6
20260507123127 47 238 0.0 0.0 0.00 0.00 0.00 89 1017.5
20260507122920 47 238 0.0 0.0 0.00 0.00 0.00 89 1017.5
20260507122716 47 238 0.0 0.0 0.00 0.00 0.00 89 1017.6
20260507122513 47 238 0.0 0.0 0.00 0.00 0.00 89 1017.5
20260507122306 47 238 0.0 0.0 0.00 0.00 0.00 89 1017.5
20260507122052 47 238 0.0 0.0 0.00 0.00 0.00 89 1017.6
20260507121842 47 238 0.0 0.0 0.00 0.00 0.00 89 1017.5
20260507121631 47 238 0.0 0.0 0.00 0.00 0.00 88 1017.5
20260507121237 47 238 0.0 0.0 0.00 0.00 0.00 88 1017.7
20260507120933 47 238 0.0 0.0 0.00 0.00 0.00 88 1017.7
20260507120727 47 238 0.0 0.0 0.00 0.00 0.00 88 1017.6
20260507120520 47 238 0.0 0.0 0.00 0.00 0.00 88 1017.6
20260507120315 47 238 0.0 0.0 0.00 0.00 0.00 88 1017.6
20260507120111 47 238 0.0 0.0 0.00 0.00 0.00 88 1017.6
20260507115908 47 238 0.0 0.0 0.00 0.00 0.00 88 1017.6
20260507115700 47 238 0.0 0.0 0.00 0.00 0.00 88 1017.6
20260507115312 47 238 0.0 0.0 0.00 0.00 0.00 88 1017.6
20260507114926 48 238 0.0 0.0 0.00 0.00 0.00 88 1017.7
20260507114724 48 238 0.0 0.0 0.00 0.00 0.00 88 1017.6
20260507114520 48 238 0.0 0.0 0.00 0.00 0.00 88 1017.7
20260507114310 48 238 0.0 0.0 0.00 0.00 0.00 88 1017.7
20260507114106 48 238 0.0 0.0 0.00 0.00 0.00 88 1017.7
20260507113715 48 238 0.0 0.0 0.00 0.00 0.00 88 1017.7
20260507113326 48 238 0.0 0.0 0.00 0.00 0.00 88 1017.7
20260507113122 48 238 0.0 0.0 0.00 0.00 0.00 88 1017.7
20260507112912 48 238 0.0 0.0 0.00 0.00 0.00 88 1017.8
20260507112704 48 238 0.0 0.0 0.00 0.00 0.00 88 1017.7
20260507112455 48 238 0.0 0.0 0.00 0.00 0.00 88 1017.8
20260507112243 48 238 0.0 0.0 0.00 0.00 0.00 88 1017.8
20260507112031 48 238 0.0 0.0 0.00 0.00 0.00 88 1017.7
20260507111644 48 238 0.0 0.0 0.00 0.00 0.00 88 1017.7
20260507111435 48 238 0.0 0.0 0.00 0.00 0.00 88 1017.8
20260507111226 48 238 0.0 0.0 0.00 0.00 0.00 88 1017.8
20260507110836 48 238 0.0 0.0 0.00 0.00 0.00 88 1017.8
20260507110625 48 238 0.0 0.0 0.00 0.00 0.00 88 1017.7
20260507110236 48 238 0.0 0.0 0.00 0.00 0.00 88 1017.7
20260507105845 48 238 0.0 0.0 0.00 0.00 0.00 88 1017.7
20260507105644 48 238 0.0 0.0 0.00 0.00 0.00 88 1017.6
20260507105439 48 238 0.0 0.0 0.00 0.00 0.00 88 1017.6
20260507105050 48 238 0.0 0.0 0.00 0.00 0.00 88 1017.7
20260507104703 48 238 0.0 0.0 0.00 0.00 0.00 88 1017.8
20260507104450 48 238 0.0 0.0 0.00 0.00 0.00 88 1017.7
20260507104239 48 238 0.0 0.0 0.00 0.00 0.00 88 1017.8
20260507104034 48 238 0.0 0.0 0.00 0.00 0.00 88 1017.8
20260507103822 48 238 0.0 0.0 0.00 0.00 0.00 88 1017.8
20260507103619 48 238 0.0 0.0 0.00 0.00 0.00 88 1017.8
20260507103407 49 238 0.0 0.0 0.00 0.00 0.00 88 1017.8
20260507103206 49 238 0.0 0.0 0.00 0.00 0.00 88 1017.8
20260507103004 49 238 0.0 0.0 0.00 0.00 0.00 88 1017.8
20260507102756 49 238 0.0 0.0 0.00 0.00 0.00 88 1017.8
20260507102553 49 238 0.0 0.0 0.00 0.00 0.00 88 1017.8
20260507102347 49 238 0.0 0.0 0.00 0.00 0.00 88 1017.8
20260507101952 49 238 0.0 0.0 0.00 0.00 0.00 88 1017.8
20260507101749 49 238 0.0 0.0 0.00 0.00 0.00 88 1017.8
20260507101206 49 238 0.0 0.0 0.00 0.00 0.00 88 1017.8
20260507100957 49 238 0.0 0.0 0.00 0.00 0.00 88 1017.8
20260507100744 49 238 0.0 0.0 0.00 0.00 0.00 88 1017.9
20260507100538 49 238 0.0 0.0 0.00 0.00 0.00 88 1017.8
20260507100147 49 238 0.0 0.0 0.00 0.00 0.00 87 1017.8
20260507095944 49 238 0.0 0.0 0.00 0.00 0.00 87 1017.8
20260507095740 49 238 0.0 0.0 0.00 0.00 0.00 87 1017.8
20260507095539 49 238 0.0 0.0 0.00 0.00 0.00 87 1017.9
20260507095331 49 238 0.0 0.0 0.00 0.00 0.00 87 1017.8
20260507095125 49 238 0.0 0.0 0.00 0.00 0.00 87 1017.9
20260507094921 49 238 0.0 0.0 0.00 0.00 0.00 87 1017.8
20260507094709 49 238 0.0 0.0 0.00 0.00 0.00 87 1017.9
20260507094504 49 238 0.0 0.0 0.00 0.00 0.00 87 1017.9
20260507094251 49 238 0.0 0.0 0.00 0.00 0.00 87 1017.9
20260507094044 49 238 0.0 0.0 0.00 0.00 0.00 87 1017.9
20260507093833 49 238 0.0 0.0 0.00 0.00 0.00 87 1017.9
20260507093629 49 238 0.0 0.0 0.00 0.00 0.00 87 1018.0
20260507093416 49 238 0.0 0.0 0.00 0.00 0.00 87 1018.0
20260507093205 49 238 0.0 0.0 0.00 0.00 0.00 87 1018.0
20260507093001 49 238 0.0 0.0 0.00 0.00 0.00 87 1018.1
20260507092611 49 238 0.0 0.0 0.00 0.00 0.00 87 1018.1
20260507092407 49 238 0.0 0.0 0.00 0.00 0.00 87 1018.2
20260507092156 49 238 0.0 0.0 0.00 0.00 0.00 87 1018.2
20260507091947 49 238 0.0 0.0 0.00 0.00 0.00 87 1018.2
20260507091739 50 238 0.0 0.0 0.00 0.00 0.00 87 1018.2
20260507091533 50 238 0.0 0.0 0.00 0.00 0.00 87 1018.3
20260507091145 50 238 0.0 0.0 0.00 0.00 0.00 87 1018.3
20260507090935 50 238 0.0 0.0 0.00 0.00 0.00 87 1018.3
20260507090731 50 238 0.0 0.0 0.00 0.00 0.00 87 1018.4
20260507090527 50 238 0.0 0.0 0.00 0.00 0.00 87 1018.4
20260507090103 50 238 0.0 0.0 0.00 0.00 0.00 87 1018.4
20260507085855 50 238 0.0 0.0 0.00 0.00 0.00 87 1018.4
20260507085458 50 238 0.0 0.0 0.00 0.00 0.00 87 1018.4
20260507085248 50 238 0.0 0.0 0.00 0.00 0.00 87 1018.4
20260507085043 50 238 0.0 0.0 0.00 0.00 0.00 87 1018.4
20260507084839 50 238 0.0 0.0 0.00 0.00 0.00 87 1018.4
20260507084630 50 238 0.0 0.0 0.00 0.00 0.00 87 1018.4
20260507084427 50 238 0.0 0.0 0.00 0.00 0.00 87 1018.4
20260507084223 50 238 0.0 0.0 0.00 0.00 0.00 86 1018.4
20260507084013 50 238 0.0 0.0 0.00 0.00 0.00 86 1018.4
20260507083802 50 238 0.0 0.0 0.00 0.00 0.00 86 1018.4
20260507083558 50 238 0.0 0.0 0.00 0.00 0.00 86 1018.4
20260507083208 50 238 0.0 0.0 0.00 0.00 0.00 86 1018.5
20260507083001 50 238 0.0 0.0 0.00 0.00 0.00 86 1018.5
20260507082757 50 238 0.0 0.0 0.00 0.00 0.00 86 1018.4
20260507082553 50 238 0.0 0.0 0.00 0.00 0.00 86 1018.5
20260507082341 50 238 0.0 0.0 0.00 0.00 0.00 86 1018.4
20260507082132 50 238 0.0 0.0 0.00 0.00 0.00 86 1018.4
20260507081925 50 238 0.0 0.0 0.00 0.00 0.00 86 1018.5
20260507081712 50 238 0.0 0.0 0.00 0.00 0.00 86 1018.4
20260507081459 50 238 0.0 0.0 0.00 0.00 0.00 86 1018.4
20260507081246 50 238 0.0 0.0 0.00 0.00 0.00 86 1018.4
20260507081039 50 238 0.0 0.0 0.00 0.00 0.00 86 1018.4
20260507080836 50 238 0.0 0.0 0.00 0.00 0.00 86 1018.4
20260507080624 50 238 0.0 0.0 0.00 0.00 0.00 86 1018.4
20260507080422 50 238 0.0 0.0 0.00 0.00 0.00 86 1018.4
20260507080219 50 238 0.0 0.0 0.00 0.00 0.00 86 1018.4
20260507075825 51 238 0.0 0.0 0.00 0.00 0.00 86 1018.4
20260507075620 51 238 0.0 0.0 0.00 0.00 0.00 86 1018.4
20260507075225 51 238 0.0 0.0 0.00 0.00 0.00 85 1018.4
20260507074835 51 238 0.0 0.0 0.00 0.00 0.00 85 1018.4
20260507074632 51 238 0.0 0.0 0.00 0.00 0.00 85 1018.4
20260507074427 51 238 0.0 0.0 0.00 0.00 0.00 85 1018.4
20260507074224 51 238 0.0 0.0 0.00 0.00 0.00 85 1018.4
20260507074011 51 238 0.0 0.0 0.00 0.00 0.00 85 1018.4
20260507073807 51 238 0.0 0.0 0.00 0.00 0.00 85 1018.4
20260507073410 51 238 0.0 0.0 0.00 0.00 0.00 85 1018.4
20260507073206 51 238 0.0 0.0 0.00 0.00 0.00 85 1018.4
20260507073004 51 238 0.0 0.0 0.00 0.00 0.00 85 1018.4
20260507072751 51 238 0.0 0.0 0.00 0.00 0.00 85 1018.4
20260507072541 51 238 0.0 0.0 0.00 0.00 0.00 85 1018.4
20260507072333 51 238 0.0 0.0 0.00 0.00 0.00 85 1018.4
20260507071938 51 238 0.0 0.0 0.00 0.00 0.00 85 1018.4
20260507071726 51 238 0.0 0.0 0.00 0.00 0.00 85 1018.4
20260507071338 51 238 0.0 0.0 0.00 0.00 0.00 85 1018.4
20260507071132 51 238 0.0 0.0 0.00 0.00 0.00 85 1018.4
20260507070921 51 238 0.0 0.0 0.00 0.00 0.00 85 1018.4
20260507070712 51 238 0.0 0.0 0.00 0.00 0.00 84 1018.4
20260507065945 51 238 0.0 0.0 0.00 0.00 0.00 84 1018.4
20260507065734 51 238 0.0 0.0 0.00 0.00 0.00 84 1018.5
20260507065532 52 238 0.0 0.0 0.00 0.00 0.00 84 1018.4
20260507065327 52 238 0.0 0.0 0.00 0.00 0.00 84 1018.5
20260507065114 52 238 0.0 0.0 0.00 0.00 0.00 84 1018.5
20260507064911 52 238 0.0 0.0 0.00 0.00 0.00 84 1018.5
20260507064707 52 238 0.0 0.0 0.00 0.00 0.00 84 1018.5
20260507064312 52 238 0.0 0.0 0.00 0.00 0.00 83 1018.5
20260507064107 52 238 0.0 0.0 0.00 0.00 0.00 83 1018.4
20260507063901 52 238 0.0 0.0 0.00 0.00 0.00 83 1018.5
20260507063657 52 238 0.0 0.0 0.00 0.00 0.00 83 1018.4
20260507063454 52 238 0.0 0.0 0.00 0.00 0.00 83 1018.5
20260507063249 52 238 0.0 0.0 0.00 0.00 0.00 83 1018.4
20260507063045 52 238 0.0 0.0 0.00 0.00 0.00 83 1018.4
20260507062841 52 238 0.0 0.0 0.00 0.00 0.00 83 1018.4
20260507062635 52 238 0.0 0.0 0.00 0.00 0.00 83 1018.4
20260507062426 52 238 0.0 0.0 0.00 0.00 0.00 82 1018.3
20260507062032 52 238 0.0 0.0 0.00 0.00 0.00 82 1018.4
20260507061824 52 238 0.0 0.0 0.00 0.00 0.00 82 1018.3
20260507061613 53 238 0.0 0.0 0.00 0.00 0.00 82 1018.4
20260507061404 53 238 0.0 0.0 0.00 0.00 0.00 82 1018.4
20260507061153 53 238 0.0 0.0 0.00 0.00 0.00 82 1018.4
20260507060950 53 238 0.0 0.0 0.00 0.00 0.00 82 1018.4
20260507060743 53 238 0.0 0.0 0.00 0.00 0.00 82 1018.4
20260507060356 53 238 0.0 0.0 0.00 0.00 0.00 82 1018.4
20260507060143 53 238 0.0 0.0 0.00 0.00 0.00 81 1018.4
20260507055940 53 238 0.0 0.0 0.00 0.00 0.00 81 1018.3
20260507055730 53 238 0.0 0.0 0.00 0.00 0.00 81 1018.3
20260507055528 53 238 0.0 0.0 0.00 0.00 0.00 81 1018.4
20260507055315 53 238 0.0 0.0 0.00 0.00 0.00 81 1018.3
20260507055102 53 238 0.0 0.0 0.00 0.00 0.00 81 1018.4
20260507054857 53 238 0.0 0.0 0.00 0.00 0.00 81 1018.4
20260507054656 54 238 0.0 0.0 0.00 0.00 0.00 81 1018.5
20260507054452 54 238 0.0 0.0 0.00 0.00 0.00 81 1018.5
20260507054240 54 238 0.0 0.0 0.00 0.00 0.00 80 1018.5
20260507054035 54 238 0.0 0.0 0.00 0.00 0.00 80 1018.4
20260507053822 54 238 0.0 0.0 0.00 0.00 0.00 80 1018.4
20260507053618 54 238 0.0 0.0 0.00 0.00 0.00 80 1018.5
20260507053226 54 238 0.0 0.0 0.00 0.00 0.00 80 1018.4
20260507053020 54 238 0.0 0.0 0.00 0.00 0.00 80 1018.3
20260507052253 55 238 0.0 0.0 0.00 0.00 0.00 79 1018.3
20260507052044 55 238 0.0 0.0 0.00 0.00 0.00 79 1018.4
20260507051647 55 238 0.0 0.0 0.00 0.00 0.00 79 1018.3
20260507051442 55 238 0.0 0.0 0.00 0.00 0.00 79 1018.4
20260507051240 55 238 0.0 0.0 0.00 0.00 0.00 79 1018.4
20260507051033 55 238 0.0 0.0 0.00 0.00 0.00 79 1018.4
20260507050636 56 238 0.0 0.0 0.00 0.00 0.00 78 1018.6
20260507050425 56 238 0.0 0.0 0.00 0.00 0.00 78 1018.6
20260507050221 56 238 0.0 0.0 0.00 0.00 0.00 78 1018.6
20260507050012 56 238 0.0 0.0 0.00 0.00 0.00 78 1018.6
20260507045430 56 238 0.0 0.0 0.00 0.00 0.00 77 1018.5
20260507045035 57 238 0.0 0.0 0.00 0.00 0.00 77 1018.5
20260507044828 57 238 0.0 0.0 0.00 0.00 0.00 77 1018.5
20260507044626 57 238 0.0 0.0 0.00 0.00 0.00 77 1018.4
20260507044228 57 238 0.0 0.0 0.00 0.00 0.00 77 1018.4
20260507043834 57 238 0.0 0.0 0.00 0.00 0.00 76 1018.3
20260507043623 58 238 0.0 0.0 0.00 0.00 0.00 76 1018.3
20260507043419 58 238 0.0 0.0 0.00 0.00 0.00 76 1018.3
20260507043213 58 238 0.0 0.0 0.00 0.00 0.00 76 1018.2
20260507043009 58 238 0.0 0.0 0.00 0.00 0.00 76 1018.2
20260507042806 58 238 0.0 0.0 0.00 0.00 0.00 75 1018.2
20260507042603 58 238 0.0 0.0 0.00 0.00 0.00 75 1018.2
20260507042350 59 238 0.0 0.0 0.00 0.00 0.00 75 1018.2
20260507042138 59 238 0.0 0.0 0.00 0.00 0.00 75 1018.1
20260507041931 59 238 0.0 0.0 0.00 0.00 0.00 75 1018.1
20260507041543 59 238 0.0 0.0 0.00 0.00 0.00 75 1018.0
20260507041333 59 238 0.0 0.0 0.00 0.00 0.00 74 1018.0
20260507041125 60 238 0.0 0.0 0.00 0.00 0.00 74 1018.0
20260507040922 60 238 0.0 0.0 0.00 0.00 0.00 74 1017.9
20260507040715 60 238 0.0 0.0 0.00 0.00 0.00 74 1017.9
20260507040502 60 238 0.0 0.0 0.00 0.00 0.00 74 1017.8
20260507040256 60 238 0.0 0.0 0.00 0.00 0.00 73 1017.8
20260507035859 61 238 0.0 0.0 0.00 0.00 0.00 73 1017.8
20260507035506 61 238 0.0 0.0 0.00 0.00 0.00 73 1017.8
20260507035119 61 238 0.0 0.0 0.00 0.00 0.00 73 1017.8
20260507034911 61 238 0.0 0.0 0.00 0.00 0.00 73 1017.8
20260507034706 62 238 0.0 0.0 0.00 0.00 0.00 72 1017.8
20260507034505 62 238 0.0 0.0 0.00 0.00 0.00 72 1017.8
20260507034300 62 238 0.0 0.0 0.00 0.00 0.00 72 1017.8
20260507034049 62 238 0.0 0.0 0.00 0.00 0.00 72 1017.8
20260507033703 62 238 0.0 0.0 0.00 0.00 0.00 72 1017.7
20260507033450 63 238 0.0 0.0 0.00 0.00 0.00 71 1017.8
20260507033056 63 238 0.0 0.0 0.00 0.00 0.00 71 1017.7
20260507032854 63 238 0.0 0.0 0.00 0.00 0.00 71 1017.7
20260507032652 63 238 0.0 0.0 0.00 0.00 0.00 71 1017.7
20260507032442 63 238 0.0 0.0 0.00 0.00 0.00 70 1017.7
20260507032230 63 238 0.0 0.0 0.00 0.00 0.00 70 1017.6
20260507032027 63 238 0.0 0.0 0.00 0.00 0.00 70 1017.6
20260507031637 64 238 0.0 0.0 0.00 0.00 0.00 69 1017.6
20260507031245 64 238 0.0 0.0 0.00 0.00 0.00 68 1017.6
20260507031033 64 238 0.0 0.0 0.00 0.00 0.00 68 1017.5
20260507030450 64 238 0.0 1.0 0.00 0.00 0.00 69 1017.5
20260507030246 64 238 0.0 0.0 0.00 0.00 0.00 69 1017.4
20260507030040 64 238 0.0 0.0 0.00 0.00 0.00 69 1017.5
20260507025507 65 238 0.0 0.0 0.00 0.00 0.00 68 1017.4
20260507025118 65 238 0.0 1.0 0.00 0.00 0.00 69 1017.4
20260507024910 65 238 0.0 0.0 0.00 0.00 0.00 68 1017.4
20260507024703 65 238 0.0 0.0 0.00 0.00 0.00 68 1017.3
20260507024502 65 238 0.0 0.0 0.00 0.00 0.00 68 1017.3
20260507024250 65 238 0.0 0.0 0.00 0.00 0.00 68 1017.3
20260507024039 65 238 0.0 0.0 0.00 0.00 0.00 68 1017.3
20260507023831 65 238 0.0 0.0 0.00 0.00 0.00 68 1017.3
20260507023627 66 238 0.0 0.0 0.00 0.00 0.00 68 1017.3
20260507023422 66 238 0.0 0.0 0.00 0.00 0.00 68 1017.3
20260507023217 66 238 0.0 0.0 0.00 0.00 0.00 68 1017.3
20260507023010 66 238 0.0 0.0 0.00 0.00 0.00 68 1017.3
20260507022618 66 238 0.0 0.0 0.00 0.00 0.00 67 1017.3
20260507022412 66 238 0.0 0.0 0.00 0.00 0.00 66 1017.2
20260507022024 66 238 0.0 0.0 0.00 0.00 0.00 66 1017.1
20260507021815 66 238 0.0 0.0 0.00 0.00 0.00 66 1017.2
20260507021608 66 238 0.0 0.0 0.00 0.00 0.00 66 1017.3
20260507021402 67 238 0.0 0.0 0.00 0.00 0.00 65 1017.2
20260507021157 67 238 0.0 0.0 0.00 0.00 0.00 64 1017.3
20260507020949 67 238 0.0 0.0 0.00 0.00 0.00 64 1017.3
20260507020738 67 238 0.0 0.0 0.00 0.00 0.00 63 1017.1
20260507020527 67 238 0.0 0.0 0.00 0.00 0.00 63 1017.2
20260507020317 67 238 0.0 0.0 0.00 0.00 0.00 63 1017.1
20260507020107 67 238 0.0 0.0 0.00 0.00 0.00 63 1017.2
20260507015858 67 238 0.0 0.0 0.00 0.00 0.00 63 1017.2
20260507015651 67 238 0.0 0.0 0.00 0.00 0.00 63 1017.1
20260507015445 67 238 0.0 4.0 0.00 0.00 0.00 62 1017.1
20260507015054 68 238 1.0 5.0 0.00 0.00 0.00 62 1017.0
20260507014846 68 238 1.0 5.0 0.00 0.00 0.00 62 1017.1
20260507014634 68 237 0.0 5.0 0.00 0.00 0.00 62 1017.0
20260507014431 68 238 1.0 5.0 0.00 0.00 0.00 62 1017.1
20260507014220 68 246 1.0 5.0 0.00 0.00 0.00 62 1017.0
20260507013827 68 246 1.0 5.0 0.00 0.00 0.00 62 1017.0
20260507013619 68 246 1.0 5.0 0.00 0.00 0.00 62 1017.1
20260507013408 68 217 0.0 4.0 0.00 0.00 0.00 62 1017.1
20260507013017 68 217 0.0 2.0 0.00 0.00 0.00 62 1017.1
20260507012813 69 217 1.0 5.0 0.00 0.00 0.00 62 1017.0
20260507012601 69 200 1.0 5.0 0.00 0.00 0.00 61 1017.1
20260507012211 69 192 1.0 5.0 0.00 0.00 0.00 61 1017.1
20260507011959 69 209 0.0 5.0 0.00 0.00 0.00 61 1017.2
20260507011748 69 205 0.0 3.0 0.00 0.00 0.00 62 1017.2
20260507011543 69 205 0.0 3.0 0.00 0.00 0.00 62 1017.2
20260507011337 69 205 0.0 1.0 0.00 0.00 0.00 62 1017.3
20260507010949 69 205 0.0 4.0 0.00 0.00 0.00 61 1017.1
20260507010739 69 205 0.0 3.0 0.00 0.00 0.00 61 1017.2
20260507010532 69 205 0.0 3.0 0.00 0.00 0.00 61 1017.2
20260507005950 69 209 0.0 3.0 0.00 0.00 0.00 63 1017.2
20260507005737 69 209 0.0 0.0 0.00 0.00 0.00 61 1017.2
20260507005527 69 209 0.0 4.0 0.00 0.00 0.00 61 1017.2
20260507005323 69 209 0.0 4.0 0.00 0.00 0.00 61 1017.3
20260507005118 69 209 0.0 2.0 0.00 0.00 0.00 60 1017.3
20260507004912 69 208 0.0 5.0 0.00 0.00 0.00 61 1017.3
20260507004700 69 208 0.0 5.0 0.00 0.00 0.00 61 1017.3
20260507004312 69 205 0.0 5.0 0.00 0.00 0.00 60 1017.4
20260507003925 69 207 0.0 5.0 0.00 0.00 0.00 60 1017.3
20260507003713 69 276 0.0 4.0 0.00 0.00 0.00 61 1017.4
20260507003512 69 276 0.0 4.0 0.00 0.00 0.00 60 1017.4
20260507003308 70 186 0.0 5.0 0.00 0.00 0.00 60 1017.3
20260507003058 69 186 0.0 5.0 0.00 0.00 0.00 61 1017.3
20260507002853 70 185 1.0 5.0 0.00 0.00 0.00 60 1017.3
20260507002649 70 185 1.0 5.0 0.00 0.00 0.00 60 1017.3
20260507002439 70 221 1.0 5.0 0.00 0.00 0.00 58 1017.3
20260507002234 70 192 1.0 6.0 0.00 0.00 0.00 59 1017.3
20260507002021 70 300 0.0 6.0 0.00 0.00 0.00 59 1017.3
20260507001818 70 310 1.0 6.0 0.00 0.00 0.00 58 1017.3
20260507001608 70 203 0.0 6.0 0.00 0.00 0.00 59 1017.3
20260507001359 71 185 1.0 6.0 0.00 0.00 0.00 61 1017.3
20260507001153 70 185 1.0 6.0 0.00 0.00 0.00 59 1017.3
20260507000950 71 195 1.0 6.0 0.00 0.00 0.00 58 1017.2
20260507000739 71 202 1.0 6.0 0.00 0.00 0.00 58 1017.3
20260507000534 71 202 1.0 6.0 0.00 0.00 0.00 59 1017.3
20260507000331 71 158 1.0 6.0 0.00 0.00 0.00 59 1017.3
20260507000130 71 161 1.0 6.0 0.00 0.00 0.00 58 1017.3
20260506235926 71 220 1.0 6.0 0.00 0.00 0.00 58 1017.4
20260506235537 71 197 0.0 4.0 0.00 0.00 0.00 60 1017.3
20260506235328 70 246 0.0 4.0 0.00 0.00 0.00 61 1017.3
20260506235118 70 246 0.0 4.0 0.00 0.00 0.00 58 1017.3
20260506234909 70 245 0.0 4.0 0.00 0.00 0.00 60 1017.3
20260506234656 70 282 0.0 4.0 0.00 0.00 0.00 59 1017.3
20260506234443 70 282 0.0 4.0 0.00 0.00 0.00 60 1017.3
20260506234055 70 282 0.0 4.0 0.00 0.00 0.00 59 1017.3
20260506233704 70 243 1.0 3.0 0.00 0.00 0.00 60 1017.3
20260506233455 70 276 0.0 3.0 0.00 0.00 0.00 59 1017.3
20260506233245 70 276 1.0 8.0 0.00 0.00 0.00 60 1017.3
20260506233033 70 274 1.0 8.0 0.00 0.00 0.00 61 1017.3
20260506232828 70 285 1.0 8.0 0.00 0.00 0.00 59 1017.3
20260506232626 70 312 1.0 8.0 0.00 0.00 0.00 59 1017.3
20260506232238 70 302 1.0 8.0 0.00 0.00 0.00 59 1017.4
20260506231848 70 252 1.0 7.0 0.00 0.00 0.00 59 1017.3
20260506231644 70 252 1.0 7.0 0.00 0.00 0.00 60 1017.4
20260506231249 70 281 1.0 7.0 0.00 0.00 0.00 61 1017.5
20260506230859 70 259 1.0 7.0 0.00 0.00 0.00 61 1017.6
20260506230650 70 279 1.0 7.0 0.00 0.00 0.00 57 1017.7
20260506230447 71 273 0.0 6.0 0.00 0.00 0.00 59 1017.7
20260506230244 70 279 0.0 6.0 0.00 0.00 0.00 60 1017.6
20260506230036 70 278 0.0 6.0 0.00 0.00 0.00 59 1017.7
20260506225827 70 204 0.0 6.0 0.00 0.00 0.00 60 1017.7
20260506225621 70 217 0.0 6.0 0.00 0.00 0.00 60 1017.7
20260506225409 70 213 0.0 6.0 0.00 0.00 0.00 60 1017.8
20260506225202 70 288 0.0 5.0 0.00 0.00 0.00 60 1017.8
20260506224952 70 290 1.0 5.0 0.00 0.00 0.00 59 1017.8
20260506224748 70 280 1.0 5.0 0.00 0.00 0.00 60 1017.8
20260506224542 70 279 1.0 5.0 0.00 0.00 0.00 60 1017.8
20260506224331 70 280 1.0 5.0 0.00 0.00 0.00 60 1017.9
20260506223752 70 251 0.0 5.0 0.00 0.00 0.00 59 1017.9
20260506223540 70 250 1.0 5.0 0.00 0.00 0.00 61 1017.9
20260506223333 70 155 0.0 5.0 0.00 0.00 0.00 61 1017.9
20260506223125 70 228 0.0 6.0 0.00 0.00 0.00 61 1018.0
20260506222914 70 228 1.0 6.0 0.00 0.00 0.00 60 1018.0
20260506222710 69 212 1.0 6.0 0.00 0.00 0.00 62 1018.0
20260506222507 69 213 1.0 6.0 0.00 0.00 0.00 61 1018.0
20260506222305 69 214 1.0 6.0 0.00 0.00 0.00 60 1018.1
20260506222056 69 288 1.0 7.0 0.00 0.00 0.00 59 1018.1
20260506221850 70 287 1.0 7.0 0.00 0.00 0.00 59 1018.2
20260506221641 70 351 1.0 7.0 0.00 0.00 0.00 59 1018.1
20260506221437 70 315 1.0 7.0 0.00 0.00 0.00 60 1018.2
20260506220904 70 250 1.0 7.0 0.00 0.00 0.00 61 1018.3
20260506220701 69 266 1.0 7.0 0.00 0.00 0.00 61 1018.4
20260506220458 69 292 1.0 7.0 0.00 0.00 0.00 63 1018.3
20260506220247 69 294 1.0 7.0 0.00 0.00 0.00 61 1018.4
20260506220038 69 267 1.0 5.0 0.00 0.00 0.00 62 1018.4
20260506215829 69 235 0.0 5.0 0.00 0.00 0.00 63 1018.4
20260506215616 69 269 1.0 7.0 0.00 0.00 0.00 62 1018.4
20260506215415 68 269 1.0 7.0 0.00 0.00 0.00 60 1018.5
20260506215212 69 240 1.0 7.0 0.00 0.00 0.00 60 1018.5
20260506215001 69 225 2.0 7.0 0.00 0.00 0.00 63 1018.4
20260506214758 68 161 1.0 7.0 0.00 0.00 0.00 61 1018.5
20260506214556 69 167 1.0 5.0 0.00 0.00 0.00 61 1018.5
20260506214354 69 182 1.0 5.0 0.00 0.00 0.00 62 1018.5
20260506214141 69 226 1.0 5.0 0.00 0.00 0.00 61 1018.5
20260506213936 69 294 1.0 8.0 0.00 0.00 0.00 61 1018.5
20260506213724 69 178 1.0 8.0 0.00 0.00 0.00 60 1018.5
20260506213335 69 202 1.0 8.0 0.00 0.00 0.00 60 1018.6
20260506213123 68 269 1.0 8.0 0.00 0.00 0.00 61 1018.6
20260506212922 68 217 1.0 8.0 0.00 0.00 0.00 62 1018.6
20260506212709 68 182 1.0 8.0 0.00 0.00 0.00 62 1018.6
20260506212312 68 167 1.0 8.0 0.00 0.00 0.00 61 1018.6
20260506212101 69 151 1.0 7.0 0.00 0.00 0.00 62 1018.6
20260506211707 69 275 1.0 6.0 0.00 0.00 0.00 59 1018.7
20260506211315 68 295 1.0 6.0 0.00 0.00 0.00 62 1018.8
20260506211107 68 312 2.0 6.0 0.00 0.00 0.00 61 1018.8
20260506210716 69 294 1.0 6.0 0.00 0.00 0.00 61 1018.8
20260506210514 69 218 1.0 6.0 0.00 0.00 0.00 60 1018.7
20260506210312 68 269 1.0 6.0 0.00 0.00 0.00 61 1018.9
20260506210101 68 195 0.0 5.0 0.00 0.00 0.00 62 1018.8
20260506205848 69 225 0.0 5.0 0.00 0.00 0.00 60 1018.8
20260506205642 68 275 0.0 1.0 0.00 0.00 0.00 64 1018.9
20260506205432 68 275 0.0 2.0 0.00 0.00 0.00 62 1018.9
20260506205219 68 275 0.0 2.0 0.00 0.00 0.00 60 1018.9
20260506205012 68 274 0.0 5.0 0.00 0.00 0.00 60 1018.9
20260506204804 68 274 1.0 5.0 0.00 0.00 0.00 60 1019.0
20260506204412 68 190 1.0 6.0 0.00 0.00 0.00 61 1019.0
20260506204205 67 217 2.0 6.0 0.00 0.00 0.00 61 1019.0
20260506203956 67 260 2.0 6.0 0.00 0.00 0.00 62 1019.1
20260506203753 67 351 1.0 6.0 0.00 0.00 0.00 61 1019.1
20260506203404 67 276 2.0 8.0 0.00 0.00 0.00 61 1019.1
20260506203201 67 294 1.0 8.0 0.00 0.00 0.00 61 1019.1
20260506202952 66 190 2.0 8.0 0.00 0.00 0.00 62 1019.1
20260506202740 66 229 2.0 8.0 0.00 0.00 0.00 61 1019.2
20260506202531 66 331 3.0 8.0 0.00 0.00 0.00 61 1019.2
20260506202319 66 200 2.0 8.0 0.00 0.00 0.00 61 1019.2
20260506202115 66 194 2.0 8.0 0.00 0.00 0.00 61 1019.2
20260506201906 67 157 2.0 8.0 0.00 0.00 0.00 61 1019.3
20260506201655 66 217 1.0 8.0 0.00 0.00 0.00 61 1019.2
20260506201446 67 292 2.0 6.0 0.00 0.00 0.00 59 1019.2
20260506201239 67 190 1.0 5.0 0.00 0.00 0.00 61 1019.3
20260506201026 67 276 1.0 5.0 0.00 0.00 0.00 62 1019.4
20260506200636 67 179 1.0 6.0 0.00 0.00 0.00 61 1019.3
20260506200425 66 196 1.0 6.0 0.00 0.00 0.00 61 1019.4
20260506200218 66 194 1.0 6.0 0.00 0.00 0.00 62 1019.4
20260506195831 66 200 0.0 6.0 0.00 0.00 0.00 61 1019.3
20260506195619 67 251 0.0 6.0 0.00 0.00 0.00 59 1019.4
20260506195414 66 210 1.0 6.0 0.00 0.00 0.00 62 1019.4
20260506195207 66 200 1.0 6.0 0.00 0.00 0.00 62 1019.4
20260506194959 66 282 1.0 6.0 0.00 0.00 0.00 61 1019.4
20260506194748 66 283 1.0 6.0 0.00 0.00 0.00 58 1019.5
20260506194536 66 282 0.0 6.0 0.00 0.00 0.00 63 1019.4
20260506194331 66 269 0.0 6.0 0.00 0.00 0.00 60 1019.5
20260506194129 66 268 0.0 6.0 0.00 0.00 0.00 60 1019.6
20260506193926 66 257 0.0 5.0 0.00 0.00 0.00 61 1019.5
20260506193715 66 258 1.0 5.0 0.00 0.00 0.00 60 1019.5
20260506193506 66 260 1.0 4.0 0.00 0.00 0.00 59 1019.5
20260506193257 66 261 1.0 4.0 0.00 0.00 0.00 61 1019.6
20260506193054 66 259 1.0 4.0 0.00 0.00 0.00 61 1019.6
20260506192848 66 232 0.0 4.0 0.00 0.00 0.00 62 1019.6
20260506192641 65 226 0.0 4.0 0.00 0.00 0.00 63 1019.6
20260506192255 65 211 1.0 0.0 0.00 0.00 0.00 64 1019.6
20260506192044 64 215 1.0 5.0 0.00 0.00 0.00 62 1019.8
20260506191836 64 219 1.0 5.0 0.00 0.00 0.00 62 1019.9
20260506191624 64 247 1.0 4.0 0.00 0.00 0.00 62 1019.9
20260506191414 64 227 0.0 3.0 0.00 0.00 0.00 63 1019.9
20260506191212 64 227 1.0 5.0 0.00 0.00 0.00 62 1019.8
20260506190816 64 285 1.0 5.0 0.00 0.00 0.00 61 1020.0
20260506190609 64 265 1.0 5.0 0.00 0.00 0.00 64 1019.9
20260506190358 64 177 1.0 5.0 0.00 0.00 0.00 64 1020.0
20260506190148 64 208 1.0 5.0 0.00 0.00 0.00 63 1019.9
20260506185802 63 167 1.0 5.0 0.00 0.00 0.00 64 1020.0
20260506185408 64 294 1.0 5.0 0.00 0.00 0.00 65 1019.9
20260506185206 63 294 0.0 1.0 0.00 0.00 0.00 64 1020.0
20260506185000 63 296 1.0 6.0 0.00 0.00 0.00 63 1020.0
20260506184758 63 190 1.0 6.0 0.00 0.00 0.00 65 1020.0
20260506184551 63 216 1.0 6.0 0.00 0.00 0.00 65 1020.0
20260506184343 62 202 1.0 6.0 0.00 0.00 0.00 65 1020.0
20260506183948 62 211 1.0 6.0 0.00 0.00 0.00 66 1020.1
20260506183551 62 205 1.0 5.0 0.00 0.00 0.00 67 1020.1
20260506183344 62 205 1.0 5.0 0.00 0.00 0.00 67 1020.1
20260506183133 62 205 1.0 5.0 0.00 0.00 0.00 65 1020.1
20260506182923 62 201 1.0 5.0 0.00 0.00 0.00 64 1020.1
20260506182530 62 254 0.0 5.0 0.00 0.00 0.00 67 1020.2
20260506182325 62 254 0.0 5.0 0.00 0.00 0.00 65 1020.2
20260506182118 62 285 1.0 5.0 0.00 0.00 0.00 66 1020.2
20260506181913 61 287 0.0 5.0 0.00 0.00 0.00 68 1020.1
20260506181701 61 289 1.0 5.0 0.00 0.00 0.00 66 1020.1
20260506181449 61 288 1.0 5.0 0.00 0.00 0.00 65 1020.1
20260506181239 61 288 1.0 5.0 0.00 0.00 0.00 65 1020.2
20260506181031 61 288 0.0 5.0 0.00 0.00 0.00 67 1020.2
20260506180638 60 247 0.0 4.0 0.00 0.00 0.00 69 1020.1
20260506180431 60 279 0.0 4.0 0.00 0.00 0.00 68 1020.1
20260506180220 60 208 0.0 3.0 0.00 0.00 0.00 70 1020.1
20260506180012 59 208 0.0 3.0 0.00 0.00 0.00 70 1020.2
20260506175806 59 208 0.0 3.0 0.00 0.00 0.00 69 1020.2
20260506175603 59 209 0.0 0.0 0.00 0.00 0.00 70 1020.2
20260506175356 59 209 0.0 4.0 0.00 0.00 0.00 70 1020.2
20260506175150 59 209 0.0 4.0 0.00 0.00 0.00 69 1020.2
20260506174941 58 180 0.0 3.0 0.00 0.00 0.00 70 1020.2